Regional Weather Roundup
Issued by NWS

Home | Current Version | Previous Version | Graphics & Text | Print | Product List | Glossary On
Versions: 1 2 3 4 5 6 7 8 9 10 11 12 13 14 15 16 17 18 19 20 21 22 23 24 25 26 27 28 29 30 31 32 33 34 35 36 37 38 39 40 41 42 43 44 45 46 47 48 49 50
000
ASUS43 KMKX 190421
RWRWI

WISCONSIN REGIONAL WEATHER ROUNDUP
NATIONAL WEATHER SERVICE MILWAUKEE/SULLIVAN WI
1000 PM CST SAT NOV 18 2017

NOTE: "FAIR" INDICATES FEW OR NO CLOUDS BELOW 12,000 FEET WITH NO
SIGNIFICANT WEATHER AND/OR OBSTRUCTIONS TO VISIBILITY.

WIZ001-002-006>008-014>016-023>028-190500-
NORTHWEST WISCONSIN

CITY           SKY/WX    TMP DP  RH WIND       PRES   REMARKS
SUPERIOR ARPT  CLOUDY    20  11  66 NW14      29.98R WCI   7
ASHLAND        CLOUDY    23  14  68 W12G20    29.92R WCI  12
HAYWARD        CLOUDY    21  11  65 NW9       29.91R WCI  11
SIREN          MOCLDY    20  12  70 NW10      29.99R WCI   9
CUMBERLAND     CLEAR     21  12  68 NW13      29.93S WCI   9
RICE LAKE      CLOUDY    23  13  67 W13       29.95R WCI  11
CHETEK         CLOUDY    23  14  68 NW9       29.93R WCI  13
LADYSMITH      CLOUDY    25  16  67 W14       29.90S WCI  13
EAU CLAIRE     CLOUDY    25  14  63 NW14      29.93R WCI  13
MENOMONIE      CLOUDY    25  16  67 NW10      29.96R WCI  15
NEW RICHMOND   CLOUDY    21  13  71 NW15      29.99R WCI   8
OSCEOLA        CLOUDY    22  13  69 W12       30.03R WCI  10
$$

WIZ003>005-009-010-017-018-190500-
NORTH CENTRAL WISCONSIN

CITY           SKY/WX    TMP DP  RH WIND       PRES   REMARKS
MANITOWISH WTR FLURRIES  21  19  93 NW9       29.81R WCI  11
ARBOR VITAE    MOCLDY    24  20  85 NW9       29.80R WCI  15
WOODRUFF       MOCLDY    24  20  85 NW9       29.80R WCI  15
RHINELANDER    CLOUDY   N/A N/A N/A NW12G21   29.80R
EAGLE RIVER    CLOUDY    24  21  90 NW16      29.78R WCI  11
LAND O LAKES   CLOUDY    24  21  89 NW8G16    29.79R WCI  15
PHILLIPS       CLOUDY    22  14  71 NW10G16   29.84S WCI  11
TOMAHAWK       CLOUDY    24  17  76 NW12G18   29.83R WCI  13
MEDFORD        CLOUDY    24  15  69 NW12G20   29.83S WCI  13
MERRILL        CLOUDY    25  17  72 NW13G20   29.83R WCI  14
$$

WIZ029-030-035-036-043>047-190500-
CENTRAL WISCONSIN

CITY           SKY/WX    TMP DP  RH WIND       PRES   REMARKS
WAUSAU         CLOUDY    27  18  69 NW10      29.81R WCI  17
MOSINEE        CLOUDY    27  19  74 NW18      29.83R WCI  13
MARSHFIELD     CLOUDY    27  17  66 NW21      29.84R WCI  13
STEVENS POINT  CLOUDY    28  18  65 NW14G21   29.83R WCI  17
WAUPACA        CLOUDY    34  23  64 NW10G22   29.81R WCI  26
WAUTOMA        CLOUDY    32  21  64 NW15G22   29.84R WCI  22
WISC RAPIDS    CLOUDY    29  18  63 NW16G25   29.86R WCI  17
CAMP DOUGLAS   CLOUDY   N/A N/A N/A NW9       29.89R
$$

WIZ011>013-019>022-031-037>040-048>050-190500-
NORTHEAST WISCONSIN

CITY           SKY/WX    TMP DP  RH WIND       PRES   REMARKS
ANTIGO         CLOUDY    26  21  82 NW15G24   29.78R WCI  14
SHAWANO        CLOUDY    33  26  74 NW14      29.79R WCI  23
OCONTO         CLOUDY    32  25  73 NW8       29.77R WCI  25
STURGEON BAY   CLOUDY    34  25  69 NW16G25   29.74R WCI  24
GREEN BAY      CLOUDY    33  27  78 NW9       29.77R WCI  25
MANITOWOC      CLOUDY    34  26  72 NW13      29.76R WCI  25
APPLETON       CLOUDY    32  23  69 NW9G18    29.77R WCI  24
CLINTONVILLE   CLOUDY    32  23  69 NW9       29.80R WCI  24
OSHKOSH        CLOUDY    33  25  72 NW14G21   29.79R WCI  23
$$

WIZ032>034-041-042-053>061-190500-
SOUTHWEST WISCONSIN

CITY           SKY/WX    TMP DP  RH WIND       PRES   REMARKS
LA CROSSE      CLOUDY    31  19  61 NW18G26   29.94R WCI  19
SPARTA         CLOUDY    29  19  66 NW15      29.92R WCI  18
VIROQUA        CLOUDY    28  22  76 NW12G18   29.90R WCI  18
BOSCOBEL       PTCLDY    33  20  58 VRB6      29.93R WCI  28
PRAIRIE DU CHI CLOUDY    31  19  61 NW13G22   29.95R WCI  21
PLATTEVILLE    CLOUDY    32  26  77 NW15G21   29.90R WCI  22
$$

WIZ056-057-062-063-064-067-068-190500-
SOUTH CENTRAL WISCONSIN

CITY           SKY/WX    TMP DP  RH WIND       PRES   REMARKS
REEDSBURG      CLOUDY    31  21  66 NW13G18   29.87R WCI  21
BARABOO/DELLS  PTCLDY    30  19  63 NW13G24   29.85R WCI  20
LONE ROCK      PTCLDY    32  22  66 NW13G28   29.90R WCI  22
MINERAL POINT  PTCLDY    32  27  80 NW16G24   29.87R WCI  21
MADISON        CLOUDY    33  23  66 NW20G31   29.84R WCI  21
MIDDLETON      CLOUDY    34  26  72 NW18G25   29.85R WCI  23
WATERTOWN      CLOUDY    34  28  78 NW12G21   29.81R WCI  25
MONROE         CLOUDY    32  27  80 NW13G18   29.84R WCI  22
JANESVILLE     CLOUDY    36  30  80 NW15G25   29.83R WCI  26
$$

WIZ051-052-058>065-066-070>072-190500-
SOUTHEAST WISCONSIN

CITY           SKY/WX    TMP DP  RH WIND       PRES   REMARKS
MILWAUKEE      CLOUDY    38  27  64 NW16G23   29.77R WCI  29
WAUKESHA       CLOUDY    32  25  74 NW18G28   29.80R WCI  20
MILWAUKEE/TIMM CLOUDY    34  25  69 NW15G22   29.79R WCI  24
RACINE         CLOUDY    37  26  64 NW18G32   29.79R WCI  27
BURLINGTON     CLOUDY    38  32  79 NW13G21   29.80R WCI  30
KENOSHA        CLOUDY    38  26  62 N12G28    29.78R WCI  30
FOND DU LAC    CLOUDY    34  24  67 NW16      29.80R WCI  24
SHEBOYGAN      CLOUDY    35  28  75 NW13G25   29.76R WCI  26
WEST BEND      CLOUDY    34  28  80 NW17G24   29.78R WCI  23
JUNEAU         CLOUDY    33  25  72 NW9       29.82R WCI  25
$$

LSZ147-162-190500-
LAKE SUPERIOR

STATION/POSITION TIME  TEMP    WIND        PRES    WAVE
                       AIR SEA DIR/SP/G            HT/PER
                 (UTC) (F)     (DEG/KT/KT) (MB)    (FT/S)
DEVILS ISLAND    0400   22     300/ 21/ 24 1014.0R
SAXON HARBOR     0340   27     300/ 13/ 17 1011.9R
$$

LMZ867-665-643>646-190500-
LAKE MICHIGAN

STATION/POSITION TIME  TEMP    WIND        PRES    WAVE
                       AIR SEA DIR/SP/G            HT/PER
                 (UTC) (F)     (DEG/KT/KT) (MB)    (FT/S)
N MID LAKE BUOY  0350   34 48  330/ 21/ 27 1006.0R   6/ 5
NORTHPORT PIER   0406   35     320/ 23     1006.4
SHEBOYGAN LAKESH 0400   36     340/ 20/ 23 1008.2R
PORT WASHINGTON  0330   37     330/  7/ 14 1008.8R
MILWAUKEE LAKESH 0350   38     330/ 14/ 20   N/A
S MID LAKE BUOY  0350   40 49  340/ 23/ 29 1006.7R  10/ 8
KENOSHA   LAKESH 0400   38     330/ 15/ 20 1008.8
$$

TC  - TEMPERATURE IN CELSIUS
VSB - VISIBILITY IN STATUTE MILES
WCI - WIND CHILL INDEX
HX  - HEAT INDEX





USA.gov is the U.S. government's official web portal to all federal, state and local government web resources and services.